Regional Weather Roundup
Issued by NWS Upton, NY

Current Version | Previous Version | Text Only | Print | Product List | Glossary On
Versions: 1 2 3 4 5 6 7 8 9 10 11 12 13 14 15 16 17 18 19 20 21 22 23 24 25 26 27 28 29 30 31 32 33 34 35 36 37 38 39 40 41 42 43 44 45 46 47 48 49 50
000
ASUS41 KOKX 272007
RWROKX

REGIONAL WEATHER ROUNDUP
NATIONAL WEATHER SERVICE NEW YORK NY
400 PM EDT MON APR 27 2015

NOTE: "FAIR" INDICATES FEW OR NO CLOUDS BELOW 12,000 FEET WITH NO
SIGNIFICANT WEATHER AND/OR OBSTRUCTIONS TO VISIBILITY.

NYZ071-072-176-178-NJZ106-104-272100-
NEW YORK CITY METRO AREA


CITY           SKY/WX    TMP DP  RH WIND       PRES   REMARKS
CENTRAL PARK   CLOUDY    61  30  31 N8        29.67F
LAGUARDIA APRT CLOUDY    58  32  37 NW16      29.63F
KENNEDY INTL   PTSUNNY   61  29  29 NW16      29.64F
NEWARK/LIBERTY PTSUNNY   62  31  31 NW13      29.65F
BRNX BOT. GARD   N/A     59  30  33 NW7       29.66S
TETERBORO      CLOUDY    59  31  34 NW15G22   29.64F
$$

NYZ177-179-078>081-272100-
LONG ISLAND NEW YORK

CITY           SKY/WX    TMP DP  RH WIND       PRES   REMARKS
FARMINGDALE    CLOUDY    59  30  33 NW15G24   29.63F
ISLIP          PTSUNNY   58  31  35 NW20G26   29.60F
SHIRLEY        CLOUDY    59  31  34 NW14G25   29.61F
WESTHAMPTON    CLOUDY    59  30  33 NW14G23   29.60F
MONTAUK POINT    N/A     56  36  47 W9        29.57F
$$

NYZ052-065-067-272100-
HUDSON VALLEY

CITY           SKY/WX    TMP DP  RH WIND       PRES   REMARKS
WHITE PLAINS   PTSUNNY   57  29  34 NW15      29.63F
NEWBURGH       PTSUNNY   55  34  44 NW12G29   29.66S
MONTGOMERY     CLOUDY    58  33  39 NW18G28   29.65F
POUGHKEEPSIE   CLOUDY    58  31  35 NW12      29.63F
ALBANY         LGT RAIN  57  34  41 N12       29.66S
$$

NJZ001-105-106-008-010-013-015-019>022-104-272100-
NEW JERSEY

CITY           SKY/WX    TMP DP  RH WIND       PRES   REMARKS
NEWARK/LIBERTY PTSUNNY   62  31  31 NW13      29.65F
TETERBORO      CLOUDY    59  31  34 NW15G22   29.64F
CALDWELL       CLOUDY    58  30  34 NW15      29.66F
MORRISTOWN     CLOUDY    59  30  33 N14G25    29.67F
SOMERVILLE     CLOUDY    59  28  30 NW13G24   29.66F
SUSSEX         CLOUDY    57  34  41 NW12G21   29.69F
ANDOVER          N/A     53  32  44 NW8G21    29.69S
TRENTON        CLOUDY    57  30  35 NW13G22   29.68F
MILLVILLE      CLOUDY    60  33  36 NW16G23   29.69F
ATLANTIC CITY  CLOUDY    59  32  36 NW17      29.68F
WRIGHTSTOWN    CLOUDY    57  31  37 NW14G22   29.66F
TOMS RIVER     CLOUDY    59  30  33 NW18G29   29.67F
BELMAR         CLOUDY    61  32  33 W16       29.66F
$$

PAZ047>061-062-071-272100-
EASTERN PENNSYLVANIA

CITY           SKY/WX    TMP DP  RH WIND       PRES   REMARKS
PHILADELPHIA   CLOUDY    59  30  33 NW16G23   29.71F
ALLENTOWN      CLOUDY    55  34  45 N16G22    29.72S
SCRANTON       CLOUDY    52  33  48 NW18      29.72F
$$

CTZ002-004>006-009-010-012-RIZ004-006-007-MAZ004-011-015-272100-
SOUTHERN NEW ENGLAND
 IN CT

CITY           SKY/WX    TMP DP  RH WIND       PRES   REMARKS
BRADLEY INTL   CLOUDY    59  33  37 N18G29    29.58S
HARTFORD       CLOUDY    58  32  37 NW9G22    29.58F
DANBURY        CLOUDY    57  29  34 NW13G23   29.63F
WTRBRY/OXFORD  PTSUNNY   55  34  44 N14G25    29.62S
BRIDGEPORT     CLOUDY    61  31  32 NW18      29.60F
MERIDEN        CLOUDY    59  32  36 NW18G26   29.59S
NEW HAVEN      CLOUDY    59  31  34 NW14G21   29.59S
CHESTER        MOCLDY    57  32  38 NW13G22   29.58S
GROTON         CLOUDY    59  32  36 N17G24    29.55F
WILLIMANTIC    CLOUDY    58  33  39 NW12G22   29.57S

 IN RI

CITY           SKY/WX    TMP DP  RH WIND       PRES   REMARKS
PROVIDENCE     PTSUNNY   58  33  39 NW18G26   29.54S
BLOCK ISLAND   PTSUNNY   54  36  50 W16G23    29.55F
WESTERLY       PTSUNNY   59  33  37 NW14G22   29.55F

 IN MA

CITY           SKY/WX    TMP DP  RH WIND       PRES   REMARKS
BOSTON         CLOUDY    56  35  45 NW20G26   29.53S
WORCESTER      CLOUDY    53  33  46 NW16G26   29.55F
WESTFIELD      CLOUDY    58  33  39 N22G30    29.58S
PROVINCETOWN   CLOUDY   N/A N/A N/A NW5       29.52S
NANTUCKET      CLOUDY    53  38  56 W12       29.52F
$$

ANZ330-335-338-340-345-350-353-355-272100-
COASTAL MARINE OBSERVATIONS


STATION/POSITION TIME  SKY/WX   TEMP    WIND        PRES    VSBY  WAVE
                                AIR SEA DIR/SP/G                  HT/PER
                 (UTC)          (F)     (DEG/KT/KT) (MB)    (MI)  (FT/S)
NY HARB ENTRANCE 1950            52 48  280/ 14/ 16 1003.3          2/ 9
4S FIRE IS       1903               46                N/A           2/ 9
20S FIRE ISLAND  1950            48 45  260/ 12/ 12 1003.5          2/10
23SW MTP         1950            47 44  260/ 16/ 17 1001.5          2/ 9
HUDSON CANYON    NOT AVBL
EXECUTION ROCKS  NOT AVBL
WESTERN LI SOUND NOT AVBL
CENTRAL LI SOUND NOT AVBL
EASTERN LI SOUND 1900            48     240/ 12/ 17   N/A
ROBBINS REEF     1900            57     310/ 17/ 20 1003.1
$$


>>>>>>>>>>>>>>>>>>>>>>>>>>>> KEY <<<<<<<<<<<<<<<<<<<<<<<<<<<
>                                                          <
>     SKY/WX - SKY CONDITION/PRESENT WEATHER               <
>     TMP    - TEMPERATURE IN FAHRENHEIT                   <
>     DP     - DEWPOINT IN FAHRENHEIT                      <
>     RH     - RELATIVE HUMIDITY IN PERCENT                <
>     WIND   - DIRECTION AND SPEED IN MPH                  <
>     PRES   - MEAN SEA LEVEL PRESSURE IN INCHES OF HG     <
>     WCI    - WIND CHILL INDEX                            <
>     VSB    - VISIBILITY IN MILES                         <
>     HX     - HEAT INDEX                                  <
>     TC     - TEMPERATURE IN CELSIUS                      <
>     VRB    - VARIABLE WIND DIRECTION                     <
>                                                          <
>>>>>>>>>>>>>>>>>>>>>>>>>>>> KEY <<<<<<<<<<<<<<<<<<<<<<<<<<<




USA.gov is the U.S. government's official web portal to all federal, state and local government web resources and services.